EW8310 Weather Reports


Display with metric or nautical units.
time (UTC)temp
F
wind
direction
speed
MPH
gust
MPH
rain 1hr
in
rain 24hr
in
rain mn
in
humidity
%
barometer
mb
20260906231403 96 288 6.0 17.0 0.00 0.00 0.00 29 1005.9
20260906230903 96 285 6.0 17.0 0.00 0.00 0.00 28 1006.0
20260906230630 96 255 9.0 19.0 0.00 0.00 0.00 29 1006.0
20260906225903 96 279 10.0 22.0 0.00 0.00 0.00 29 1006.1
20260906225403 96 279 8.0 22.0 0.00 0.00 0.00 29 1005.9
20260906224902 96 323 12.0 19.0 0.00 0.00 0.00 29 1006.1
20260906223859 96 281 8.0 17.0 0.00 0.00 0.00 28 1006.1
20260906223402 97 278 11.0 16.0 0.00 0.00 0.00 28 1006.1
20260906223348 97 295 6.0 15.0 0.00 0.00 0.00 28 1006.3
20260906222402 97 288 10.0 15.0 0.00 0.00 0.00 28 1006.3
20260906222348 97 243 5.0 17.0 0.00 0.00 0.00 29 1006.3
20260906221402 97 283 10.0 18.0 0.00 0.00 0.00 28 1006.4
20260906220901 97 250 7.0 18.0 0.00 0.00 0.00 28 1006.4
20260906220357 96 241 6.0 19.0 0.00 0.00 0.00 29 1006.4
20260906215858 97 268 12.0 19.0 0.00 0.00 0.00 28 1006.6
20260906215359 97 266 9.0 16.0 0.00 0.00 0.00 28 1006.6
20260906214901 98 274 9.0 16.0 0.00 0.00 0.00 28 1006.9
20260906214401 97 210 7.0 15.0 0.00 0.00 0.00 29 1006.9
20260906213901 97 288 10.0 16.0 0.00 0.00 0.00 28 1006.9
20260906213401 98 268 10.0 16.0 0.00 0.00 0.00 28 1006.9
20260906213122 98 281 9.0 15.0 0.00 0.00 0.00 29 1007.0
20260906212401 98 293 8.0 12.0 0.00 0.00 0.00 29 1007.0
20260906211857 98 262 3.0 14.0 0.00 0.00 0.00 29 1007.0
20260906211357 98 313 7.0 14.0 0.00 0.00 0.00 29 1007.0
20260906211120 98 293 5.0 16.0 0.00 0.00 0.00 28 1007.0
20260906210400 97 286 11.0 16.0 0.00 0.00 0.00 29 1007.1
20260906205901 98 266 4.0 16.0 0.00 0.00 0.00 29 1007.0
20260906205401 98 259 7.0 16.0 0.00 0.00 0.00 28 1007.1
20260906204859 98 228 5.0 11.0 0.00 0.00 0.00 29 1007.1
20260906204624 98 223 4.0 13.0 0.00 0.00 0.00 30 1007.0
20260906203856 98 216 6.0 13.0 0.00 0.00 0.00 30 1007.3
20260906203355 98 269 4.0 12.0 0.00 0.00 0.00 29 1007.3
20260906202856 98 254 4.0 13.0 0.00 0.00 0.00 30 1007.4
20260906202359 98 241 3.0 14.0 0.00 0.00 0.00 29 1007.5
20260906201859 97 258 7.0 14.0 0.00 0.00 0.00 30 1007.5
20260906201359 97 243 7.0 12.0 0.00 0.00 0.00 30 1007.5
20260906200859 97 262 3.0 15.0 0.00 0.00 0.00 30 1007.6
20260906200358 97 138 6.0 15.0 0.00 0.00 0.00 30 1007.6
20260906195858 96 241 5.0 11.0 0.00 0.00 0.00 31 1007.7
20260906195624 96 340 2.0 10.0 0.00 0.00 0.00 31 1007.8
20260906194858 97 193 4.0 10.0 0.00 0.00 0.00 31 1007.8
20260906194358 96 155 1.0 6.0 0.00 0.00 0.00 31 1007.9
20260906193858 94 271 3.0 7.0 0.00 0.00 0.00 33 1008.2
20260906193358 95 281 4.0 7.0 0.00 0.00 0.00 33 1008.3
20260906193343 94 244 2.0 9.0 0.00 0.00 0.00 32 1008.3
20260906192622 94 244 4.0 9.0 0.00 0.00 0.00 33 1008.5
20260906192119 94 255 1.0 9.0 0.00 0.00 0.00 33 1008.5
20260906191357 94 282 1.0 6.0 0.00 0.00 0.00 34 1008.7
20260906190857 93 258 1.0 7.0 0.00 0.00 0.00 36 1008.9
20260906190354 92 217 0.0 7.0 0.00 0.00 0.00 35 1009.0
20260906190115 93 220 2.0 5.0 0.00 0.00 0.00 35 1009.1
20260906185358 92 18 0.0 4.0 0.00 0.00 0.00 35 1009.0
20260906184857 92 285 1.0 4.0 0.00 0.00 0.00 35 1009.2
20260906184357 93 282 0.0 5.0 0.00 0.00 0.00 34 1009.1
20260906183857 93 296 1.0 5.0 0.00 0.00 0.00 35 1009.2
20260906183357 92 190 2.0 4.0 0.00 0.00 0.00 35 1009.4
20260906182852 92 38 1.0 6.0 0.00 0.00 0.00 35 1009.5
20260906182353 92 255 2.0 6.0 0.00 0.00 0.00 35 1009.5
20260906181853 92 314 0.0 6.0 0.00 0.00 0.00 35 1009.6
20260906181356 92 244 4.0 6.0 0.00 0.00 0.00 35 1009.6
20260906180856 93 326 1.0 3.0 0.00 0.00 0.00 34 1009.7
20260906180356 92 245 2.0 3.0 0.00 0.00 0.00 36 1009.7
20260906175856 91 230 0.0 4.0 0.00 0.00 0.00 36 1009.8
20260906175356 90 329 1.0 5.0 0.00 0.00 0.00 36 1009.9
20260906175123 89 269 2.0 5.0 0.00 0.00 0.00 37 1009.8
20260906174358 89 326 3.0 5.0 0.00 0.00 0.00 37 1009.9
20260906173856 89 296 1.0 5.0 0.00 0.00 0.00 39 1009.9
20260906173355 89 305 2.0 5.0 0.00 0.00 0.00 38 1009.8
20260906173118 89 278 1.0 5.0 0.00 0.00 0.00 38 1009.8
20260906172355 89 223 1.0 5.0 0.00 0.00 0.00 39 1009.9
20260906171855 89 245 2.0 5.0 0.00 0.00 0.00 39 1009.8
20260906171618 89 281 2.0 6.0 0.00 0.00 0.00 39 1009.8
20260906170855 89 286 2.0 6.0 0.00 0.00 0.00 38 1009.9
20260906170355 89 341 1.0 5.0 0.00 0.00 0.00 39 1009.8
20260906165850 89 233 2.0 4.0 0.00 0.00 0.00 39 1009.8
20260906165351 89 254 1.0 4.0 0.00 0.00 0.00 38 1009.8
20260906165126 89 314 1.0 4.0 0.00 0.00 0.00 40 1009.9
20260906164354 89 282 0.0 5.0 0.00 0.00 0.00 39 1009.9
20260906163854 88 302 2.0 5.0 0.00 0.00 0.00 40 1010.0
20260906163354 88 316 2.0 5.0 0.00 0.00 0.00 40 1009.9
20260906162854 87 266 2.0 5.0 0.00 0.00 0.00 42 1010.0
20260906162354 87 240 2.0 4.0 0.00 0.00 0.00 40 1009.9
20260906161853 88 265 1.0 4.0 0.00 0.00 0.00 41 1010.0
20260906161617 89 243 1.0 4.0 0.00 0.00 0.00 39 1010.0
20260906160853 89 275 0.0 3.0 0.00 0.00 0.00 38 1010.0
20260906160353 88 152 0.0 2.0 0.00 0.00 0.00 39 1010.0
20260906160117 87 193 0.0 2.0 0.00 0.00 0.00 40 1010.0
20260906155353 86 200 0.0 0.0 0.00 0.00 0.00 41 1010.0
20260906155119 85 202 0.0 0.0 0.00 0.00 0.00 42 1010.1
20260906154619 86 202 0.0 0.0 0.00 0.00 0.00 41 1010.1
20260906153853 87 175 0.0 2.0 0.00 0.00 0.00 40 1010.1
20260906153352 86 176 0.0 2.0 0.00 0.00 0.00 40 1010.1
20260906152849 86 142 0.0 1.0 0.00 0.00 0.00 41 1010.0
20260906152349 87 161 0.0 3.0 0.00 0.00 0.00 39 1010.2
20260906151852 86 192 0.0 3.0 0.00 0.00 0.00 40 1010.3
20260906151353 85 168 0.0 1.0 0.00 0.00 0.00 42 1010.2
20260906150854 84 83 0.0 1.0 0.00 0.00 0.00 44 1010.3
20260906150352 83 69 0.0 3.0 0.00 0.00 0.00 48 1010.3
20260906150112 82 85 1.0 3.0 0.00 0.00 0.00 47 1010.3
20260906145348 81 94 0.0 2.0 0.00 0.00 0.00 48 1010.4
20260906144847 79 72 0.0 0.0 0.00 0.00 0.00 53 1010.4
20260906144348 78 20 0.0 0.0 0.00 0.00 0.00 54 1010.3
20260906143851 78 20 0.0 0.0 0.00 0.00 0.00 55 1010.3
20260906143352 77 21 0.0 0.0 0.00 0.00 0.00 58 1010.3
20260906143110 77 61 0.0 0.0 0.00 0.00 0.00 58 1010.3
20260906142614 77 141 0.0 0.0 0.00 0.00 0.00 57 1010.2
20260906142119 78 142 0.0 0.0 0.00 0.00 0.00 56 1010.2
20260906141351 77 224 0.0 0.0 0.00 0.00 0.00 56 1010.1
20260906140851 78 159 0.0 0.0 0.00 0.00 0.00 58 1009.9
20260906140351 78 28 0.0 0.0 0.00 0.00 0.00 58 1009.8
20260906135847 78 28 0.0 0.0 0.00 0.00 0.00 58 1009.7
20260906135350 78 24 0.0 0.0 0.00 0.00 0.00 59 1009.8
20260906134850 77 24 0.0 1.0 0.00 0.00 0.00 58 1009.8
20260906134350 77 25 0.0 1.0 0.00 0.00 0.00 57 1009.7
20260906133850 77 44 0.0 1.0 0.00 0.00 0.00 57 1009.7
20260906133350 77 44 0.0 1.0 0.00 0.00 0.00 57 1009.7
20260906133338 77 44 0.0 1.0 0.00 0.00 0.00 57 1009.6
20260906132346 77 52 0.0 1.0 0.00 0.00 0.00 57 1009.5
20260906131846 77 51 0.0 1.0 0.00 0.00 0.00 57 1009.5
20260906131840 77 51 0.0 0.0 0.00 0.00 0.00 56 1009.6
20260906130851 77 52 0.0 2.0 0.00 0.00 0.00 56 1009.5
20260906130621 77 52 0.0 2.0 0.00 0.00 0.00 56 1009.5
20260906125849 77 54 0.0 0.0 0.00 0.00 0.00 56 1009.6
20260906125349 77 54 0.0 0.0 0.00 0.00 0.00 55 1009.6
20260906124845 77 35 0.0 0.0 0.00 0.00 0.00 55 1009.6
20260906124345 76 35 0.0 1.0 0.00 0.00 0.00 55 1009.6
20260906123845 76 3 0.0 1.0 0.00 0.00 0.00 56 1009.6
20260906123345 77 52 0.0 0.0 0.00 0.00 0.00 55 1009.6
20260906122848 77 54 0.0 0.0 0.00 0.00 0.00 55 1009.6
20260906122348 77 54 0.0 0.0 0.00 0.00 0.00 55 1009.5
20260906121848 77 54 0.0 0.0 0.00 0.00 0.00 55 1009.6
20260906121348 77 54 0.0 0.0 0.00 0.00 0.00 55 1009.6
20260906120843 77 54 0.0 0.0 0.00 0.00 0.00 55 1009.5
20260906120344 77 27 0.0 0.0 0.00 0.00 0.00 56 1009.4
20260906115844 77 72 0.0 0.0 0.00 0.00 0.00 57 1009.4
20260906115601 77 72 0.0 0.0 0.00 0.00 0.00 57 1009.2
20260906114845 76 87 0.0 0.0 0.00 0.00 0.00 59 1009.1
20260906114348 76 120 0.0 0.0 0.00 0.00 0.00 60 1009.1
20260906113847 77 120 0.0 0.0 0.00 0.00 0.00 60 1009.0
20260906113347 77 120 0.0 0.0 0.00 0.00 0.00 59 1009.0
20260906112847 77 120 0.0 0.0 0.00 0.00 0.00 57 1008.9
20260906112347 77 120 0.0 0.0 0.00 0.00 0.00 57 1008.9
20260906111847 77 120 0.0 0.0 0.00 0.00 0.00 58 1008.9
20260906111347 77 120 0.0 0.0 0.00 0.00 0.00 58 1008.9
20260906110846 78 120 0.0 0.0 0.00 0.00 0.00 57 1008.8
20260906110609 78 120 0.0 0.0 0.00 0.00 0.00 56 1008.8
20260906105846 78 120 0.0 1.0 0.00 0.00 0.00 55 1008.8
20260906105346 78 118 0.0 1.0 0.00 0.00 0.00 55 1008.8
20260906104846 78 130 0.0 0.0 0.00 0.00 0.00 55 1008.8
20260906104346 78 123 0.0 1.0 0.00 0.00 0.00 54 1008.8
20260906104104 79 110 0.0 3.0 0.00 0.00 0.00 54 1008.7
20260906103605 79 159 0.0 3.0 0.00 0.00 0.00 53 1008.7
20260906102846 79 164 0.0 3.0 0.00 0.00 0.00 53 1008.7
20260906102608 79 93 0.0 3.0 0.00 0.00 0.00 53 1008.7
20260906101845 80 52 0.0 2.0 0.00 0.00 0.00 52 1008.6
20260906101345 80 51 0.0 2.0 0.00 0.00 0.00 52 1008.6
20260906100845 80 39 0.0 5.0 0.00 0.00 0.00 53 1008.6
20260906100345 79 41 1.0 5.0 0.00 0.00 0.00 53 1008.5
20260906095845 79 41 1.0 4.0 0.00 0.00 0.00 54 1008.6
20260906095345 78 47 0.0 3.0 0.00 0.00 0.00 55 1008.6
20260906094841 78 54 0.0 0.0 0.00 0.00 0.00 56 1008.6
20260906094341 78 54 0.0 0.0 0.00 0.00 0.00 57 1008.6
20260906093841 78 54 0.0 0.0 0.00 0.00 0.00 57 1008.5
20260906093344 78 54 0.0 1.0 0.00 0.00 0.00 57 1008.5
20260906092845 78 54 0.0 1.0 0.00 0.00 0.00 57 1008.5
20260906092344 78 54 0.0 1.0 0.00 0.00 0.00 58 1008.5
20260906091844 77 55 0.0 1.0 0.00 0.00 0.00 58 1008.6
20260906091344 77 344 0.0 0.0 0.00 0.00 0.00 60 1008.6
20260906090844 77 344 0.0 0.0 0.00 0.00 0.00 58 1008.7
20260906090343 77 344 0.0 0.0 0.00 0.00 0.00 59 1008.6
20260906085844 77 8 0.0 0.0 0.00 0.00 0.00 59 1008.7
20260906085343 78 8 0.0 0.0 0.00 0.00 0.00 60 1008.6
20260906084843 77 8 0.0 0.0 0.00 0.00 0.00 60 1008.6
20260906084343 77 7 0.0 0.0 0.00 0.00 0.00 60 1008.7
20260906083843 78 8 0.0 0.0 0.00 0.00 0.00 59 1008.6
20260906083825 78 8 0.0 0.0 0.00 0.00 0.00 58 1008.8
20260906082842 78 8 0.0 0.0 0.00 0.00 0.00 59 1008.6
20260906082342 78 8 0.0 0.0 0.00 0.00 0.00 56 1008.7
20260906081843 78 8 0.0 0.0 0.00 0.00 0.00 55 1008.7
20260906081601 78 8 0.0 0.0 0.00 0.00 0.00 58 1008.9
20260906081101 78 8 0.0 0.0 0.00 0.00 0.00 58 1008.8
20260906080605 78 8 0.0 0.0 0.00 0.00 0.00 57 1008.8
20260906075842 79 265 0.0 0.0 0.00 0.00 0.00 54 1008.8
20260906075342 79 278 0.0 0.0 0.00 0.00 0.00 56 1009.0
20260906074841 79 87 0.0 0.0 0.00 0.00 0.00 53 1009.0
20260906074341 80 87 0.0 0.0 0.00 0.00 0.00 52 1009.0
20260906073842 80 87 0.0 0.0 0.00 0.00 0.00 53 1009.1
20260906073342 80 87 0.0 0.0 0.00 0.00 0.00 52 1009.1
20260906072842 81 87 0.0 0.0 0.00 0.00 0.00 50 1009.1
20260906072342 81 87 0.0 1.0 0.00 0.00 0.00 49 1009.1
20260906071842 82 69 0.0 1.0 0.00 0.00 0.00 48 1009.1
20260906071341 81 69 0.0 0.0 0.00 0.00 0.00 49 1009.1
20260906070841 81 69 0.0 0.0 0.00 0.00 0.00 49 1009.1
20260906070341 81 55 0.0 0.0 0.00 0.00 0.00 50 1009.1
20260906065841 81 27 0.0 0.0 0.00 0.00 0.00 53 1009.1
20260906065341 81 27 0.0 0.0 0.00 0.00 0.00 50 1009.1
20260906064841 82 27 0.0 0.0 0.00 0.00 0.00 50 1009.1
20260906064340 82 27 0.0 0.0 0.00 0.00 0.00 47 1009.1
20260906064048 82 27 0.0 0.0 0.00 0.00 0.00 51 1009.2
20260906063939 82 27 0.0 0.0 0.00 0.00 0.00 49 1009.1
20260906062840 81 28 0.0 0.0 0.00 0.00 0.00 51 1009.1
20260906062605 81 27 0.0 0.0 0.00 0.00 0.00 54 1009.2
20260906061839 82 27 0.0 1.0 0.00 0.00 0.00 51 1009.1
20260906061339 82 27 0.0 1.0 0.00 0.00 0.00 50 1009.2
20260906060840 82 272 0.0 0.0 0.00 0.00 0.00 51 1009.2
20260906060340 83 272 0.0 0.0 0.00 0.00 0.00 49 1009.4
20260906055839 83 272 0.0 1.0 0.00 0.00 0.00 48 1009.2
20260906055339 84 68 0.0 1.0 0.00 0.00 0.00 44 1009.2
20260906054839 85 73 0.0 2.0 0.00 0.00 0.00 43 1009.2
20260906054338 85 99 0.0 3.0 0.00 0.00 0.00 43 1009.1
20260906053839 84 92 0.0 3.0 0.00 0.00 0.00 44 1009.2
20260906053340 83 87 0.0 4.0 0.00 0.00 0.00 46 1009.2
20260906053059 83 49 1.0 4.0 0.00 0.00 0.00 47 1009.2
20260906052340 81 78 0.0 2.0 0.00 0.00 0.00 51 1009.4
20260906051839 81 324 0.0 0.0 0.00 0.00 0.00 54 1009.4
20260906051600 80 326 0.0 0.0 0.00 0.00 0.00 55 1009.4
20260906051044 81 324 0.0 0.0 0.00 0.00 0.00 52 1009.4
20260906050927 81 324 0.0 0.0 0.00 0.00 0.00 55 1009.4
20260906050101 81 324 0.0 0.0 0.00 0.00 0.00 54 1009.4
20260906045338 81 324 0.0 0.0 0.00 0.00 0.00 52 1009.4
20260906044838 82 324 0.0 0.0 0.00 0.00 0.00 53 1009.4
20260906044337 82 326 0.0 0.0 0.00 0.00 0.00 52 1009.4
20260906043837 82 324 0.0 0.0 0.00 0.00 0.00 52 1009.4
20260906043338 82 324 0.0 0.0 0.00 0.00 0.00 52 1009.4
20260906042337 83 324 0.0 0.0 0.00 0.00 0.00 49 1009.4
20260906041837 83 103 0.0 0.0 0.00 0.00 0.00 49 1009.4
20260906041336 84 103 0.0 0.0 0.00 0.00 0.00 49 1009.2
20260906040837 85 103 0.0 0.0 0.00 0.00 0.00 45 1009.4
20260906040337 85 103 0.0 0.0 0.00 0.00 0.00 44 1009.4
20260906035836 84 103 0.0 0.0 0.00 0.00 0.00 47 1009.4
20260906035337 84 103 0.0 0.0 0.00 0.00 0.00 46 1009.4
20260906034836 85 104 0.0 0.0 0.00 0.00 0.00 44 1009.2
20260906034336 86 104 0.0 0.0 0.00 0.00 0.00 45 1009.2
20260906033836 86 106 0.0 0.0 0.00 0.00 0.00 40 1009.1
20260906033335 87 106 0.0 0.0 0.00 0.00 0.00 39 1009.1
20260906033058 87 106 0.0 0.0 0.00 0.00 0.00 39 1009.0
20260906032815 87 100 0.0 0.0 0.00 0.00 0.00 40 1008.9
20260906031835 86 262 0.0 0.0 0.00 0.00 0.00 40 1008.8
20260906031336 86 269 0.0 0.0 0.00 0.00 0.00 42 1008.8
20260906030835 86 269 0.0 0.0 0.00 0.00 0.00 43 1008.7
20260906030336 87 269 0.0 0.0 0.00 0.00 0.00 41 1008.7
20260906030057 87 269 0.0 0.0 0.00 0.00 0.00 39 1008.6
20260906025335 88 250 0.0 0.0 0.00 0.00 0.00 39 1008.5
20260906024835 88 54 0.0 0.0 0.00 0.00 0.00 37 1008.4
20260906024335 88 169 0.0 0.0 0.00 0.00 0.00 37 1008.4
20260906023835 89 169 0.0 1.0 0.00 0.00 0.00 37 1008.4
20260906023335 89 175 0.0 1.0 0.00 0.00 0.00 36 1008.3
20260906022835 89 134 0.0 1.0 0.00 0.00 0.00 36 1008.2
20260906022334 89 216 0.0 2.0 0.00 0.00 0.00 36 1008.2
20260906021834 89 282 0.0 5.0 0.00 0.00 0.00 36 1008.3
20260906021335 89 281 2.0 6.0 0.00 0.00 0.00 36 1008.2
20260906020834 89 281 2.0 7.0 0.00 0.00 0.00 36 1008.2
20260906020334 90 250 1.0 11.0 0.00 0.00 0.00 36 1008.2
20260906015834 90 340 5.0 11.0 0.00 0.00 0.00 36 1008.2
20260906015333 90 296 1.0 7.0 0.00 0.00 0.00 36 1008.2
20260906014833 90 298 4.0 10.0 0.00 0.00 0.00 36 1008.2
20260906014334 90 269 4.0 10.0 0.00 0.00 0.00 35 1008.1
20260906013833 90 286 4.0 12.0 0.00 0.00 0.00 35 1008.2
20260906013553 91 234 6.0 12.0 0.00 0.00 0.00 35 1008.1
20260906012833 91 307 4.0 15.0 0.00 0.00 0.00 35 1008.1
20260906012333 91 298 8.0 15.0 0.00 0.00 0.00 35 1008.1
20260906011833 91 289 3.0 11.0 0.00 0.00 0.00 35 1008.1
20260906011333 92 293 5.0 11.0 0.00 0.00 0.00 35 1008.2
20260906010832 92 293 6.0 13.0 0.00 0.00 0.00 34 1008.1
20260906010550 92 350 7.0 13.0 0.00 0.00 0.00 35 1008.2
20260906005833 92 310 6.0 13.0 0.00 0.00 0.00 34 1008.2
20260906005333 92 353 5.0 13.0 0.00 0.00 0.00 34 1008.2
20260906004833 93 295 3.0 13.0 0.00 0.00 0.00 34 1007.9
20260906004332 93 275 5.0 14.0 0.00 0.00 0.00 34 1008.1
20260906003832 93 299 7.0 14.0 0.00 0.00 0.00 34 1008.2
20260906003332 93 278 4.0 13.0 0.00 0.00 0.00 34 1008.2
20260906002832 93 4 5.0 13.0 0.00 0.00 0.00 33 1008.1
20260906002331 94 299 7.0 13.0 0.00 0.00 0.00 33 1008.1
20260906001831 94 238 2.0 5.0 0.00 0.00 0.00 33 1008.1
20260906001552 94 323 0.0 10.0 0.00 0.00 0.00 34 1007.9
20260906000831 94 278 1.0 10.0 0.00 0.00 0.00 32 1007.8
20260906000333 94 302 1.0 9.0 0.00 0.00 0.00 32 1007.9
20260905235831 94 250 4.0 12.0 0.00 0.00 0.00 33 1007.9
20260905235556 94 302 3.0 12.0 0.00 0.00 0.00 32 1007.8
20260905234831 94 354 3.0 11.0 0.00 0.00 0.00 32 1007.8
20260905234330 94 275 8.0 14.0 0.00 0.00 0.00 32 1007.8
20260905233830 94 300 7.0 14.0 0.00 0.00 0.00 32 1007.9
20260905233601 94 262 6.0 13.0 0.00 0.00 0.00 32 1007.8
20260905233038 94 306 4.0 16.0 0.00 0.00 0.00 33 1007.9
20260905232920 94 281 6.0 13.0 0.00 0.00 0.00 33 1007.9
20260905231830 94 272 7.0 16.0 0.00 0.00 0.00 33 1007.9